Flag for Belgium Weather past 2 weeks in Eupen, Belgium

Now
62 °F

Overcast.


Feels Like: 62 °F
Forecast: 42 / 58 °F
Wind: 2 mph from North

Location: Spa / La Sauveniere

Current Time: May 24, 2015 at 4:21:30 PM

Latest Report: May 24, 2015 at 3:00 PM


Visibility: 13 mi

Pressure: 30.09 "Hg

Humidity: 59%

Dew point: 47 °F

Location of EupenLocation

Historic Weather in Eupen — Graph

°F

Eupen temperature yesterday

Maximum temperature yesterday: 63 °F (at 3:00 PM)
Minimum temperature yesterday: 46 °F (at 3:00 AM)
Average temperature yesterday: 53 °F

Past Weeks' High & Low Weather Summary

 TemperatureHumidityPressure
High76 °F (May 11, 6:00 PM)100% (May 15, 4:00 AM)30.39 "Hg (May 15, 4:00 AM)
Low39 °F (May 16, 6:00 AM)29% (May 13, 3:00 PM)29.70 "Hg (May 18, 9:00 PM)
Average52 °F72%30.12 "Hg
* Reported May 9 3:00 PM — May 24 3:00 PM, Eupen, Weather by CustomWeather, © 2015

Note: Actual official high and low records may vary slightly from our data, if they occured in-between our weather recording intervals... More about our weather records

Advertising

Eupen weather history for previous 24 hours

 ConditionsComfort  
Time TempWeatherWind HumidityBarometerVisibility
3:00 PM
Sun, May 24
62 °FOvercast.2 mph59%30.09 "Hg12 mi
2:00 PM59 °FOvercast.N/A59%30.10 "Hg12 mi
1:00 PM58 °FOvercast.2 mph64%30.11 "Hg11 mi
12:00 PM56 °FOvercast.N/A68%30.12 "Hg9 mi
11:00 AM56 °FSunny.1 mph74%30.12 "HgN/A
10:00 AM53 °FSunny.N/A85%30.14 "HgN/A
9:00 AM51 °FFog.1 mph91%30.15 "Hg3 mi
8:00 AM50 °FFog.1 mph95%30.15 "Hg2 mi
7:00 AM49 °FFog.1 mph97%30.15 "Hg1 mi
6:00 AM49 °FFog.1 mph97%30.14 "Hg1 mi
4:00 AM49 °FFog.1 mph95%30.15 "Hg1 mi
3:00 AM50 °FFog.1 mph94%30.16 "Hg2 mi
2:00 AM50 °FFog.2 mph94%30.16 "Hg2 mi
1:00 AM50 °FFog.1 mph96%30.18 "Hg2 mi
12:00 AM50 °FFog.2 mph96%30.19 "Hg2 mi
10:00 PM
Sat, May 23
51 °FFog.2 mph96%30.18 "Hg1 mi
9:00 PM52 °FLow clouds.3 mph96%30.17 "Hg1 mi
8:00 PM53 °FDrizzle. Low clouds.3 mph97%30.16 "Hg1 mi
7:00 PM55 °FFog.3 mph91%30.15 "Hg2 mi
6:00 PM55 °FFog.2 mph90%30.16 "Hg3 mi
5:00 PM57 °FOvercast.5 mph85%30.15 "HgN/A
4:00 PM63 °FScattered clouds.3 mph56%30.12 "Hg12 mi
Weather by CustomWeather, © 2015

See weather overviewHow to use our weather pages